Total_Precipitation_Accumulation
0.73 0.71 0.72 0.68 0.66 0.69 0.75 0.92 1.15 0.96 0.50 0.33 0.38 0.40 0.42 0.48 0.55 0.57 0.57 0.69 0.79 0.83 0.86 0.93 1.03 1.15 1.31 1.62 2.19 2.95 3.56 3.96 3.94 3.70 3.50 3.49 3.76 4.15
0.85 0.84 0.81 0.79 0.79 0.79 0.81 0.86 1.04 1.23 0.92 0.41 0.40 0.46 0.52 0.55 0.61 0.60 0.59 0.69 0.75 0.86 0.94 0.96 1.03 1.13 1.25 1.41 1.66 2.19 2.88 3.42 3.80 3.97 3.95 3.92 4.02 4.27
0.91 0.92 0.91 0.91 0.94 0.94 0.95 0.96 1.01 1.20 1.21 0.59 0.40 0.46 0.59 0.64 0.65 0.62 0.61 0.65 0.66 0.77 0.89 0.96 1.04 1.13 1.21 1.33 1.49 1.76 2.29 2.83 3.31 3.82 4.17 4.22 4.18 4.20
0.93 0.98 0.98 0.98 1.02 1.02 1.08 1.08 1.06 1.10 1.21 0.90 0.54 0.51 0.59 0.65 0.70 0.71 0.65 0.64 0.65 0.72 0.83 0.95 1.02 1.09 1.16 1.24 1.37 1.55 1.85 2.36 2.79 3.15 3.65 3.92 3.99 4.18
0.87 0.93 0.98 1.05 1.09 1.08 1.09 1.10 1.06 1.01 1.05 1.05 0.74 0.59 0.63 0.68 0.75 0.78 0.77 0.77 0.73 0.76 0.80 0.89 0.99 1.05 1.13 1.20 1.27 1.37 1.50 1.76 2.21 2.74 3.26 3.68 3.76 3.77
0.84 0.89 0.96 1.08 1.17 1.25 1.32 1.24 1.16 1.21 1.22 1.22 1.00 0.79 0.73 0.74 0.90 0.95 0.93 0.87 0.82 0.75 0.78 0.80 0.91 1.02 1.05 1.07 1.10 1.18 1.30 1.55 1.95 2.45 2.87 3.32 3.58 3.54
0.85 0.85 0.89 1.08 1.30 1.52 1.65 1.60 1.57 1.63 1.58 1.55 1.35 1.10 0.94 0.94 1.02 1.01 1.05 0.95 0.92 0.88 0.84 0.75 0.75 0.77 0.83 0.95 1.03 1.08 1.17 1.33 1.57 1.94 2.41 2.82 3.22 3.49
0.95 0.88 0.85 0.94 1.05 1.24 1.48 1.57 1.67 1.81 1.89 1.84 1.69 1.45 1.12 1.00 1.06 1.23 1.37 1.38 1.22 0.89 0.88 0.85 0.84 0.90 0.85 0.85 0.98 1.05 1.10 1.21 1.42 1.66 1.97 2.31 2.66 3.10
0.86 0.80 0.80 0.79 0.86 0.82 0.97 1.08 1.18 1.38 1.64 1.82 1.90 1.55 1.26 1.15 1.35 1.59 1.62 1.61 1.35 1.10 1.19 1.26 1.06 1.03 0.96 1.02 1.18 1.11 1.15 1.24 1.37 1.52 1.74 2.03 2.28 2.61
0.76 0.77 0.78 0.76 0.76 0.86 0.94 0.98 0.91 0.94 1.18 1.44 1.59 1.46 1.37 1.39 1.62 1.92 2.08 2.14 1.77 1.40 1.41 1.63 1.27 1.11 1.03 1.04 1.22 1.18 1.16 1.24 1.34 1.47 1.60 1.75 1.96 2.26
0.76 0.88 0.93 0.83 0.89 1.10 1.22 1.18 0.98 0.84 0.93 1.26 1.55 1.60 1.65 1.86 2.11 2.49 2.78 2.88 2.55 1.85 1.59 1.74 1.50 1.27 1.16 1.10 1.17 1.27 1.25 1.24 1.28 1.39 1.55 1.67 1.81 2.05
0.79 0.91 1.18 1.15 1.14 1.23 1.29 1.32 1.26 0.96 0.87 0.93 1.04 1.17 1.21 1.30 1.69 2.06 2.36 2.68 2.63 2.32 1.76 1.74 1.72 1.65 1.71 1.31 1.10 1.06 1.12 1.26 1.32 1.36 1.48 1.63 1.80 1.82
0.90 0.96 1.10 1.21 1.22 1.25 1.31 1.28 1.33 1.27 1.22 1.19 1.13 1.07 1.10 1.22 1.39 1.66 1.93 2.26 2.53 2.36 1.85 1.96 2.11 1.96 1.94 1.59 1.21 1.09 1.01 0.99 1.06 1.21 1.39 1.60 1.76 1.86
1.00 0.91 0.99 1.15 1.22 1.25 1.21 1.22 1.32 1.36 1.29 1.26 1.20 1.12 1.08 1.14 1.20 1.36 1.62 1.80 1.98 2.05 1.85 2.04 2.38 2.18 2.11 1.78 1.37 1.23 1.13 1.05 1.00 1.06 1.18 1.52 1.71 1.84
1.06 1.21 1.19 1.16 1.11 1.05 1.05 1.12 1.14 1.10 1.15 1.15 1.05 0.94 0.89 0.93 1.05 1.22 1.41 1.59 1.73 1.80 1.84 1.87 2.02 2.08 2.24 2.10 1.56 1.29 1.29 1.27 1.16 1.13 1.19 1.30 1.44 1.60
1.06 1.16 1.16 1.05 0.95 0.91 0.94 0.95 0.94 1.01 1.13 1.13 1.00 0.89 0.84 0.92 1.04 1.14 1.32 1.47 1.72 1.76 1.70 1.74 1.87 2.17 2.38 2.04 1.78 1.52 1.32 1.45 1.38 1.29 1.28 1.31 1.35 1.41
1.29 1.27 1.15 1.01 0.92 0.84 0.81 0.78 0.79 0.92 1.04 1.03 1.04 1.03 0.99 1.01 1.05 1.09 1.27 1.43 1.63 1.60 1.59 1.69 1.85 2.07 2.29 2.29 2.19 1.77 1.47 1.41 1.44 1.46 1.43 1.45 1.44 1.43
1.32 1.23 1.03 0.92 0.87 0.83 0.82 0.81 0.79 0.83 0.87 0.95 1.02 1.05 1.07 1.09 1.09 1.09 1.25 1.42 1.50 1.45 1.48 1.60 1.88 2.29 2.56 2.59 2.28 1.94 1.65 1.54 1.59 1.65 1.56 1.52 1.49 1.39
1.08 0.96 0.87 0.85 0.83 0.81 0.82 0.82 0.80 0.75 0.81 0.93 1.01 1.05 1.09 1.14 1.14 1.15 1.20 1.30 1.36 1.36 1.42 1.54 1.85 2.33 2.55 2.38 2.22 1.97 1.79 1.65 1.69 1.86 1.77 1.52 1.42 1.32
0.86 0.87 0.85 0.82 0.81 0.81 0.82 0.83 0.81 0.79 0.83 0.90 0.95 0.98 1.04 1.13 1.15 1.10 1.10 1.23 1.32 1.37 1.43 1.54 1.77 2.10 2.38 2.12 2.01 2.03 1.93 1.85 1.86 1.98 1.88 1.61 1.47 1.51
0.78 0.80 0.79 0.83 0.85 0.83 0.81 0.81 0.83 0.85 0.83 0.85 0.88 0.89 0.94 1.06 1.08 1.00 1.03 1.14 1.33 1.44 1.46 1.45 1.58 1.85 2.14 2.25 2.23 2.07 2.03 2.02 1.94 2.01 1.95 1.87 1.78 1.70
0.76 0.80 0.77 0.79 0.84 0.85 0.84 0.83 0.85 0.83 0.81 0.82 0.83 0.84 0.88 0.99 1.04 0.99 1.04 1.15 1.23 1.30 1.33 1.37 1.49 1.84 2.28 2.45 2.24 1.99 2.00 2.08 2.17 2.10 2.02 1.96 2.05 2.03
0.86 0.84 0.78 0.74 0.76 0.80 0.84 0.84 0.84 0.79 0.76 0.81 0.85 0.85 0.88 0.97 0.97 1.01 1.05 1.10 1.20 1.24 1.29 1.44 1.60 1.85 2.11 2.11 2.09 2.00 1.89 1.89 1.99 2.11 2.31 2.06 1.67 1.50